Starlink 5399

operational
NORAD ID: 54788 Int'l Des: 2022-175 Owner: SPXS Country: US Constellation: starlink
LEOCIRCULAR

About Starlink 5399

Description loading...

Live Position

Loading 3D Globe...

Upcoming Passes

Altitude History

Altitude vs Time

uPlot chart will show altitude changes over time

Two-Line Element Set

1 54788U 22175AG 25306.12617923 -.00003030 00000-0 -17236-3 0 9996
2 54788 53.2176 241.6443 0001512 98.1992 261.9172 15.08845115160877
Epoch: Nov 2, 2025 • Age: 44 hours

Current Status

Altitude 544.8 km
Velocity 7.59 km/s
Sub-Earth Point -17.93°S, 41.25°E
Launch Date Dec 17, 2022
Age 2.8 years
Type internet

Technical Details

Classification Payload
Mass 305.00 kg
Dry Mass 290.00 kg
Total Mass 305.00 kg
Length 0.20 m
Diameter 2.80 m
Span 9.00 m
Shape Box + pan
Manufacturer SPXS
Bus Type Starlink
Phase Status In Orbit
Owner/State SPXS/US

Large Constellations

Loading constellations...